Location: Staunton
(38.1490°N, 79.0720°W)
Time: 11:16:48
(UTC-04:00)

ISS - Pass Details

Date: 23 October 2021
Orbit: 417 x 423 km, 51.6° (Epoch: 23 October)

Event Time Altitude Azimuth Distance (km) Brightness Sun altitude
Exits shadow 06:26:22 23° 244° (WSW) 947 -2.5 -13.8°
Maximum altitude 06:28:18 66° 322° (NW) 460 -3.8 -13.4°
Drops below altitude 10° 06:31:39 10° 46° (NE) 1,499 -0.4 -12.8°
Sets 06:33:46 0° 49° (NE) 2,364 0.8 -12.3°
